Volver al catálogo

EUTE 33E

ActivoComunicacionesGEO
NORAD 33750·PAYLOAD·🇪🇺 EU

Lanzado Feb 12, 2009 desde Guiana Space Centre

Loading…

TLE

ActualizadoSource: Space-Track

Época: Sep 14, 2026, 15:42 UTC

1 33750U 09008B   26257.65484764 -.00000177  00000-0  00000-0 0  9997
2 33750   2.9300  79.3549 0000533 312.3447  17.0642  0.98946008 64246

Sigue EUTE 33E en tiempo real con AllMySat

Download on the App Store